EST,Max TemperatureF,Mean TemperatureF,Min TemperatureF,Max Dew PointF,MeanDew PointF,Min DewpointF,Max Humidity, Mean Humidity, Min Humidity, Max Sea Level PressureIn, Mean Sea Level PressureIn, Min Sea Level PressureIn, Max VisibilityMiles, Mean VisibilityMiles, Min VisibilityMiles, Max Wind SpeedMPH, Mean Wind SpeedMPH, Max Gust SpeedMPH,PrecipitationIn, CloudCover, Events, WindDirDegrees
2011-11-1,69,49,28,36,32,27,92,60,27,30.26,30.21,30.17,10,10,10,16,5,21,0.00,0,,185
2011-11-2,68,52,36,39,36,32,82,60,37,30.24,30.15,30.02,10,10,10,20,7,25,0.00,0,,169
2011-11-3,53,49,44,49,45,36,100,77,54,30.01,29.87,29.79,10,5,2,18,8,23,0.39,6,Rain,109
2011-11-4,58,49,40,47,38,31,93,67,40,30.26,30.15,29.98,10,10,7,18,9,25,0.00,3,,43
2011-11-5,62,46,29,33,30,26,92,62,31,30.30,30.22,30.15,10,10,10,13,6,16,0.00,0,,131
2011-11-6,64,53,42,41,37,33,82,62,42,30.26,30.20,30.14,10,10,10,21,9,28,0.00,3,,176
2011-11-7,68,62,56,53,49,40,80,64,47,30.26,30.21,30.16,10,10,10,14,7,20,T,6,,188
2011-11-8,72,62,51,52,50,48,89,69,49,30.15,30.05,29.95,10,10,10,22,7,26,0.00,3,,170
2011-11-9,64,51,38,55,44,33,93,77,60,30.10,29.91,29.75,10,10,4,28,13,41,0.28,7,Rain,231
2011-11-10,44,38,32,32,29,25,92,68,43,30.11,30.09,30.06,10,10,2,18,7,25,T,3,Snow,270
2011-11-11,52,39,26,31,25,23,92,64,36,30.13,30.03,29.89,10,10,10,20,7,29,0.00,0,,201
2011-11-12,63,55,47,37,33,31,53,44,35,29.99,29.92,29.84,10,10,10,25,15,38,0.00,0,,210
2011-11-13,69,63,56,55,48,37,68,58,47,29.81,29.71,29.61,10,10,10,32,19,48,0.00,7,,208
2011-11-14,72,64,55,61,57,53,90,78,66,29.76,29.68,29.60,10,8,2,32,14,46,0.79,7,Rain-Thunderstorm,230
2011-11-15,59,55,50,54,51,46,93,80,67,29.87,29.83,29.77,10,10,10,16,8,22,T,6,Rain,200
2011-11-16,56,47,38,54,39,17,93,60,27,30.17,29.94,29.82,10,10,6,21,9,29,T,5,Rain,341
2011-11-17,43,35,26,20,16,10,63,45,27,30.34,30.26,30.18,10,10,10,22,7,30,0.00,2,,283
2011-11-18,51,39,26,21,16,13,63,42,21,30.38,30.25,30.09,10,10,10,22,10,28,0.00,0,,172
2011-11-19,63,54,44,48,35,23,60,49,38,30.11,30.04,29.93,10,10,6,23,14,31,T,6,Rain,196
2011-11-20,61,54,46,55,49,42,100,82,64,30.21,30.14,30.02,10,5,2,22,7,31,0.17,8,Rain,357
2011-11-21,48,47,45,47,45,42,100,93,86,30.21,30.15,30.09,10,4,0,10,6,15,0.02,8,Fog-Rain-Thunderstorm,75
2011-11-22,63,54,44,59,48,42,100,96,92,30.10,29.87,29.63,10,6,2,23,9,32,0.55,8,Rain-Thunderstorm,113
2011-11-23,45,40,35,42,39,34,100,92,83,30.32,30.22,29.96,8,6,4,12,5,18,0.00,8,,282
2011-11-24,49,44,39,43,41,37,100,90,80,30.36,30.31,30.23,10,4,0,14,8,18,0.00,8,Fog,204
2011-11-25,62,48,34,41,38,34,100,73,46,30.23,30.15,30.04,10,9,3,21,10,30,0.00,0,,188
2011-11-26,65,60,54,51,45,34,62,53,43,30.07,29.98,29.83,10,10,10,24,13,37,T,6,Rain,194
2011-11-27,62,51,39,55,42,37,100,95,89,30.03,29.91,29.79,10,10,7,18,7,28,0.26,8,Rain,297
2011-11-28,41,39,36,39,37,34,100,93,85,30.02,29.87,29.70,10,7,2,21,13,26,0.59,8,Rain,21
2011-11-29,41,37,33,39,35,30,100,96,92,29.93,29.75,29.65,10,6,1,15,6,22,0.53,8,Rain-Snow,324
2011-11-30,42,34,25,30,25,23,92,72,51,30.20,30.07,29.91,10,10,10,14,5,20,0.00,3,,291